This is the latest recevied weather packets stored in our database for station/object SP9UVG-13. If no packets are shown the sender has not sent any weather packets the latest 10 day(s).
| Time | Temp. | Humidity | Pressure | Rain* | Wind** | Luminosity | Snow |
|---|---|---|---|---|---|---|---|
| 1787549360 | 10° C | 92% | 1007.7 hPa | 0 mm | - | - | - |
| 1787548819 | 9.44° C | 92% | 1007.7 hPa | 0 mm | - | - | - |
| 1787547738 | 8.89° C | 91% | 1007.7 hPa | 0 mm | - | - | - |
| 1787547197 | 8.33° C | 91% | 1007.6 hPa | 0 mm | - | - | - |
| 1787546657 | 7.78° C | 91% | 1007.5 hPa | 0 mm | - | - | - |
| 1787546116 | 7.78° C | 91% | 1007.5 hPa | 0 mm | - | - | - |
| 1787545576 | 7.22° C | 90% | 1007.4 hPa | 0 mm | - | - | - |
| 1787545035 | 6.67° C | 90% | 1007.5 hPa | 0 mm | - | - | - |
| 1787544495 | 6.67° C | 90% | 1007.5 hPa | 0 mm | - | - | - |
| 1787543954 | 6.67° C | 90% | 1007.4 hPa | 0 mm | - | - | - |
| 1787543414 | 6.67° C | 90% | 1007.4 hPa | 0 mm | - | - | - |
| 1787542873 | 6.67° C | 90% | 1007.4 hPa | 0 mm | - | - | - |
| 1787542333 | 6.67° C | 89% | 1007.4 hPa | 0 mm | - | - | - |
| 1787541792 | 6.67° C | 89% | 1007.4 hPa | 0 mm | - | - | - |
| 1787541252 | 6.67° C | 89% | 1007.2 hPa | 0 mm | - | - | - |
| 1787540711 | 6.67° C | 89% | 1007.4 hPa | 0 mm | - | - | - |
| 1787540171 | 6.67° C | 89% | 1007.4 hPa | 0 mm | - | - | - |
| 1787539630 | 6.67° C | 88% | 1007.5 hPa | 0 mm | - | - | - |
| 1787539090 | 7.22° C | 88% | 1007.5 hPa | 0 mm | - | - | - |
| 1787538549 | 7.22° C | 88% | 1007.4 hPa | 0 mm | - | - | - |
| 1787538009 | 7.22° C | 88% | 1007.3 hPa | 0 mm | - | - | - |
| 1787537468 | 7.22° C | 87% | 1007.2 hPa | 0 mm | - | - | - |
| 1787536962 | 7.78° C | 87% | 1007.2 hPa | 0 mm | - | - | - |
| 1787536928 | 7.78° C | 87% | 1007.2 hPa | 0 mm | - | - | - |
| 1787535306 | 8.89° C | 87% | 1007.5 hPa | 0 mm | - | - | - |
* Rain latest hour (hover to see other rain measurements)
** Current wind speed in m/s (hover to see current wind gust speed)